Springfield, OH

10:50 PM EST on February 24, 2017 (GMT -0500)
Springfield-Beckley Municipal

Weather History for KSGH - October, 2013

Change the Weather History Date:

Friday, October 11, 2013

  Actual Average (KFFO) Record (KFFO)
Temperature  
Mean Temperature 62 °F -  
Max Temperature 79 °F 64 °F 85 °F (2010)
Min Temperature 44 °F 42 °F 30 °F (2012)
Degree Days  
Heating Degree Days 4    
Growing Degree Days 12 (Base 50)    
Moisture  
Dew Point 49 °F    
Average Humidity 58    
Maximum Humidity 100    
Minimum Humidity 32    
Precipitation  
Precipitation 0.00 in - - ()
Sea Level Pressure  
Sea Level Pressure 30.08 in    
Wind  
Wind Speed 3 mph (SE)    
Max Wind Speed 7 mph    
Max Gust Speed -    
Visibility 3 miles    
Events      
Averages and records for this station are not official NWS values.
T = Trace of Precipitation, MM = Missing Value Source: NWS Daily Summary

Daily Weather History Graph

Daily Weather History Graph

Search for Another Location

Airport or City:

Trip Planner

Search our weather history database for the weather conditions in past years. The results will help you decide how hot, cold, wet, or windy it might be!

Date:

Astronomy

Oct. 11, 2013 Rise Set
Actual Time 7:41 AM EDT 7:01 PM EDT
Civil Twilight 7:14 AM EDT 7:28 PM EDT
Nautical Twilight 6:43 AM EDT 7:59 PM EDT
Astronomical Twilight 6:12 AM EDT 8:31 PM EDT
Moon 2:22 PM EDT (10/11) No Moon Set
Length of Visible Light 12h 13m
Length of Day
11h 19m
Waxing Crescent, 47% of the Moon is Illuminated
Oct 11
Waxing Crescent
Oct 11
First Quarter
Oct 18
Full
Oct 26
Last Quarter
Nov 3
New

Hourly Weather History & Observations

Time (EDT) Temp. Windchill Dew Point Humidity Pressure Visibility Wind Dir Wind Speed Gust Speed Precip Events Conditions
12:56 AM 47.8 °F - 45.9 °F 93% 30.10 in 7.0 mi Calm Calm - N/A   Clear
1:56 AM 46.9 °F - 45.9 °F 96% 30.10 in 8.0 mi Calm Calm - N/A   Clear
2:56 AM 45.9 °F 44.6 °F 45.0 °F 97% 30.09 in 8.0 mi SE 3.5 mph - N/A   Clear
3:56 AM 46.9 °F - 45.9 °F 96% 30.09 in 8.0 mi SSE 3.5 mph - N/A   Clear
4:56 AM 45.9 °F 44.6 °F 43.9 °F 93% 30.08 in 8.0 mi SSE 3.5 mph - N/A   Clear
5:56 AM 45.0 °F - 43.9 °F 96% 30.09 in 3.0 mi Calm Calm - N/A   Clear
6:56 AM 45.0 °F - 43.9 °F 96% 30.12 in 8.0 mi Calm Calm - N/A   Clear
7:45 AM 44.6 °F - 44.6 °F 100% 30.12 in 2.0 mi Calm Calm - N/A   Clear
7:56 AM 45.0 °F - 43.9 °F 96% 30.12 in 2.5 mi Calm Calm - N/A   Clear
8:40 AM 50.0 °F - 48.2 °F 94% 30.13 in 6.0 mi South 3.5 mph - N/A   Clear
8:56 AM 52.0 °F - 47.8 °F 86% 30.14 in 6.0 mi Calm Calm - N/A   Clear
9:30 AM 57.2 °F - 48.2 °F 72% 30.13 in 1.8 mi Calm Calm - N/A   Haze
9:41 AM 59.0 °F - 51.8 °F 77% 30.14 in 2.5 mi SE 4.6 mph - N/A   Haze
9:48 AM 60.8 °F - 51.8 °F 72% 30.14 in 7.0 mi SE 5.8 mph - N/A   Clear
9:56 AM 59.9 °F - 52.9 °F 78% 30.14 in 7.0 mi ESE 5.8 mph - N/A   Clear
10:56 AM 68.0 °F - 50.0 °F 52% 30.14 in 8.0 mi Calm Calm - N/A   Clear
11:56 AM 70.9 °F - 48.9 °F 46% 30.12 in 4.0 mi Variable 4.6 mph - N/A   Haze
12:56 PM 74.8 °F - 45.0 °F 34% 30.11 in 5.0 mi Variable 3.5 mph - N/A   Haze
1:39 PM 77.0 °F - 44.6 °F 32% 30.10 in 1.5 mi Variable 5.8 mph - N/A   Haze
1:41 PM 77.0 °F - 44.6 °F 32% 30.10 in 1.0 mi Variable 4.6 mph - N/A   Haze
1:48 PM 77.0 °F - 44.6 °F 32% 30.09 in 0.5 mi SE 3.5 mph - N/A   Haze
1:56 PM 77.0 °F - 45.0 °F 32% 30.08 in 0.5 mi Variable 4.6 mph - N/A   Haze
1:59 PM 75.2 °F - 44.6 °F 34% 30.09 in 1.2 mi Variable 3.5 mph - N/A   Haze
2:01 PM 75.2 °F - 44.6 °F 34% 30.09 in 4.0 mi Calm Calm - N/A   Haze
2:22 PM 77.0 °F - 51.8 °F 41% 30.08 in 2.0 mi Variable 4.6 mph - N/A   Haze
2:32 PM 77.0 °F - 50.0 °F 39% 30.08 in 3.0 mi SE 3.5 mph - N/A   Haze
2:43 PM 78.8 °F - 51.8 °F 39% 30.08 in 2.0 mi Variable 4.6 mph - N/A   Haze
2:56 PM 77.9 °F - 50.9 °F 39% 30.07 in 2.0 mi Variable 5.8 mph - N/A   Haze
3:03 PM 78.8 °F - 48.2 °F 34% 30.07 in 1.8 mi Variable 3.5 mph - N/A   Haze
3:12 PM 78.8 °F - 48.2 °F 34% 30.07 in 2.0 mi Variable 5.8 mph - N/A   Haze
3:38 PM 78.8 °F - 50.0 °F 36% 30.07 in 3.0 mi Variable 3.5 mph - N/A   Haze
3:42 PM 78.8 °F - 48.2 °F 34% 30.07 in 1.8 mi Variable 4.6 mph - N/A   Haze
3:56 PM 79.0 °F - 47.8 °F 33% 30.06 in 1.0 mi Variable 4.6 mph - N/A   Haze
3:59 PM 78.8 °F - 48.2 °F 34% 30.06 in 1.5 mi Variable 5.8 mph - N/A   Haze
4:06 PM 78.8 °F - 48.2 °F 34% 30.06 in 1.0 mi Variable 6.9 mph - N/A   Haze
4:15 PM 78.8 °F - 48.2 °F 34% 30.06 in 0.8 mi Variable 5.8 mph - N/A   Haze
4:22 PM 78.8 °F - 48.2 °F 34% 30.06 in 0.5 mi Variable 6.9 mph - N/A   Haze
4:38 PM 78.8 °F - 48.2 °F 34% 30.06 in 1.0 mi Variable 6.9 mph - N/A   Haze
4:42 PM 78.8 °F - 48.2 °F 34% 30.06 in 2.0 mi Variable 5.8 mph - N/A   Haze
4:56 PM 79.0 °F - 48.9 °F 35% 30.05 in 1.0 mi SE 4.6 mph - N/A   Haze
5:02 PM 78.8 °F - 50.0 °F 36% 30.06 in 1.5 mi Variable 5.8 mph - N/A   Haze
5:34 PM 78.8 °F - 48.2 °F 34% 30.06 in 2.5 mi SE 4.6 mph - N/A   Haze
5:41 PM 78.8 °F - 50.0 °F 36% 30.06 in 3.0 mi Variable 4.6 mph - N/A   Haze
5:56 PM 77.0 °F - 52.9 °F 43% 30.05 in 2.5 mi Variable 3.5 mph - N/A   Haze
6:04 PM 75.2 °F - 53.6 °F 47% 30.06 in 1.2 mi Variable 4.6 mph - N/A   Haze
6:15 PM 75.2 °F - 53.6 °F 47% 30.06 in 1.8 mi ESE 4.6 mph - N/A   Haze
6:22 PM 75.2 °F - 53.6 °F 47% 30.06 in 2.0 mi ESE 4.6 mph - N/A   Haze
6:37 PM 71.6 °F - 53.6 °F 53% 30.06 in 4.0 mi ESE 4.6 mph - N/A   Haze
6:56 PM 68.0 °F - 52.9 °F 58% 30.07 in 5.0 mi SE 4.6 mph - N/A   Haze
7:56 PM 61.9 °F - 48.9 °F 62% 30.07 in 8.0 mi SE 4.6 mph - N/A   Clear
8:21 PM 59.0 °F - 51.8 °F 77% 30.08 in 1.8 mi SSE 3.5 mph - N/A   Haze
8:29 PM 59.0 °F - 50.0 °F 72% 30.07 in 3.0 mi SSE 3.5 mph - N/A   Haze
8:56 PM 59.0 °F - 50.0 °F 72% 30.07 in 6.0 mi SSE 3.5 mph - N/A   Haze
9:56 PM 54.0 °F - 50.0 °F 86% 30.07 in 4.0 mi SSE 3.5 mph - N/A   Clear
10:47 PM 53.6 °F - 50.0 °F 88% 30.08 in 2.5 mi SSE 3.5 mph - N/A   Clear
10:56 PM 54.0 °F - 48.9 °F 83% 30.07 in 3.0 mi SSE 3.5 mph - N/A   Haze
11:09 PM 53.6 °F - 50.0 °F 88% 30.08 in 2.0 mi Calm Calm - N/A   Clear
11:23 PM 53.6 °F - 48.2 °F 82% 30.08 in 3.0 mi SSE 3.5 mph - N/A   Clear
11:56 PM 50.9 °F - 48.9 °F 93% 30.07 in 2.5 mi Calm Calm - N/A   Clear